• In Czech Republic
  • List of Countries
  • For 7 days
  • Water Temperature
  • Satellite Maps
  • Weather Map
  • Weather Widgets
  • user-avatar
    Login

    Hourly Weather Ostrovlyany

    Today, 24 September, Monday

    Time Temperature Precipitation Wind Pressure Humidity
    00:00 +7°C° 0 mm 2 mps 740 mmHg 91%
    01:00 +7°C° 0 mm 2 mps 740 mmHg 93%
    02:00 +8°C° 0 mm 1 mps 739 mmHg 96%
    03:00 +7°C° 0.1 mm 2 mps 739 mmHg 96%
    04:00 +7°C° 0.1 mm 2 mps 738 mmHg 96%
    05:00 +7°C° 0.1 mm 2 mps 738 mmHg 95%
    06:00 +7°C° 1 mm 2 mps 737 mmHg 95%
    07:00 +8°C° 1 mm 2 mps 737 mmHg 95%
    08:00 +8°C° 0 mm 2 mps 736 mmHg 95%
    09:00 +8°C° 2.6 mm 3 mps 735 mmHg 95%
    10:00 +7°C° 2.6 mm 3 mps 734 mmHg 95%
    11:00 +6°C° 2.6 mm 4 mps 734 mmHg 96%
    12:00 +6°C° 2.7 mm 4 mps 733 mmHg 95%
    13:00 +6°C° 2.7 mm 5 mps 733 mmHg 95%
    14:00 +6°C° 2.7 mm 5 mps 732 mmHg 94%
    15:00 +6°C° 0.9 mm 5 mps 732 mmHg 93%
    16:00 +5°C° 0.9 mm 6 mps 732 mmHg 92%
    17:00 +7°C° 0.9 mm 6 mps 733 mmHg 91%
    18:00 +5°C° 0.2 mm 6 mps 733 mmHg 91%
    19:00 +6°C° 0.2 mm 5 mps 734 mmHg 91%
    20:00 +6°C° 0.2 mm 5 mps 734 mmHg 91%
    21:00 +6°C° 0.1 mm 5 mps 735 mmHg 91%
    22:00 +6°C° 0.1 mm 5 mps 736 mmHg 91%
    23:00 +6°C° 0.1 mm 5 mps 736 mmHg 91%

    Tomorrow, 25 September, Tuesday

    Time Temperature Precipitation Wind Pressure Humidity
    00:00 +6°C° 0 mm 5 mps 737 mmHg 90%
    01:00 +5°C° 0 mm 5 mps 738 mmHg 89%
    02:00 +5°C° 0 mm 5 mps 739 mmHg 89%
    03:00 +5°C° 0 mm 5 mps 739 mmHg 90%
    04:00 +3°C° 0 mm 5 mps 740 mmHg 91%
    05:00 +3°C° 0 mm 5 mps 740 mmHg 93%
    06:00 +3°C° 0 mm 5 mps 741 mmHg 90%
    07:00 +3°C° 0 mm 5 mps 742 mmHg 88%
    08:00 +4°C° 0 mm 6 mps 742 mmHg 86%
    09:00 +4°C° 0 mm 6 mps 743 mmHg 83%
    10:00 +5°C° 0 mm 6 mps 744 mmHg 79%
    11:00 +5°C° 0 mm 6 mps 744 mmHg 76%
    12:00 +7°C° 0.1 mm 6 mps 745 mmHg 72%
    13:00 +7°C° 0.1 mm 6 mps 745 mmHg 68%
    14:00 +8°C° 0.1 mm 6 mps 746 mmHg 64%
    15:00 +7°C° 0.1 mm 6 mps 746 mmHg 64%
    16:00 +7°C° 0.1 mm 5 mps 747 mmHg 64%
    17:00 +6°C° 0.1 mm 5 mps 748 mmHg 64%
    18:00 +5°C° 0 mm 4 mps 748 mmHg 65%
    19:00 +4°C° 0 mm 4 mps 749 mmHg 66%
    20:00 +3°C° 0 mm 4 mps 750 mmHg 67%
    21:00 +3°C° 0 mm 4 mps 751 mmHg 68%
    22:00 +1°C° 0 mm 4 mps 751 mmHg 69%
    23:00 +2°C° 0 mm 3 mps 752 mmHg 70%

    Day after tomorrow, 26 September, Wednesday

    Time Temperature Precipitation Wind Pressure Humidity
    00:00 +2°C° 0 mm 3 mps 752 mmHg 72%
    01:00 +1°C° 0 mm 3 mps 753 mmHg 73%
    02:00 +1°C° 0 mm 3 mps 753 mmHg 75%
    03:00 +1°C° 0 mm 3 mps 753 mmHg 80%
    04:00 +1°C° 0 mm 3 mps 754 mmHg 85%
    05:00 +1°C° 0 mm 3 mps 754 mmHg 91%
    06:00 +2°C° 0 mm 3 mps 754 mmHg 87%
    07:00 +3°C° 0 mm 3 mps 754 mmHg 83%
    08:00 +4°C° 0 mm 4 mps 754 mmHg 80%
    09:00 +6°C° 0 mm 4 mps 754 mmHg 72%
    10:00 +8°C° 0 mm 4 mps 754 mmHg 64%
    11:00 +10°C° 0 mm 5 mps 753 mmHg 56%
    12:00 +10°C° 0 mm 5 mps 753 mmHg 57%
    13:00 +10°C° 0 mm 6 mps 752 mmHg 57%
    14:00 +11°C° 0 mm 6 mps 751 mmHg 58%
    15:00 +10°C° 0.3 mm 6 mps 751 mmHg 65%
    16:00 +9°C° 0.3 mm 7 mps 750 mmHg 72%
    17:00 +6°C° 0.3 mm 7 mps 749 mmHg 80%
    18:00 +6°C° 0.8 mm 7 mps 748 mmHg 82%
    19:00 +6°C° 0.8 mm 7 mps 747 mmHg 84%
    20:00 +5°C° 0.8 mm 8 mps 747 mmHg 87%
    21:00 +5°C° 0.7 mm 8 mps 746 mmHg 87%
    22:00 +6°C° 0.7 mm 8 mps 745 mmHg 88%
    23:00 +6°C° 0.7 mm 8 mps 744 mmHg 88%

    27 September, Thursday

    Time Temperature Precipitation Wind Pressure Humidity
    00:00 +6°C° 0.4 mm 8 mps 743 mmHg 89%
    01:00 +6°C° 0.4 mm 8 mps 743 mmHg 90%
    02:00 +6°C° 0.4 mm 8 mps 742 mmHg 90%
    03:00 +6°C° 0.9 mm 7 mps 742 mmHg 91%
    04:00 +8°C° 0.9 mm 6 mps 742 mmHg 92%
    05:00 +8°C° 0.9 mm 5 mps 741 mmHg 93%
    06:00 +8°C° 0.9 mm 4 mps 741 mmHg 94%
    07:00 +9°C° 0.9 mm 3 mps 741 mmHg 94%
    08:00 +9°C° 0.9 mm 2 mps 741 mmHg 95%
    09:00 +9°C° 0.4 mm 2 mps 741 mmHg 94%
    10:00 +9°C° 0.4 mm 2 mps 741 mmHg 94%
    11:00 +10°C° 0.4 mm 1 mps 741 mmHg 93%
    12:00 +9°C° 0.6 mm 2 mps 741 mmHg 92%
    13:00 +8°C° 0.6 mm 2 mps 741 mmHg 92%
    14:00 +8°C° 0.6 mm 2 mps 741 mmHg 91%
    15:00 +8°C° 0.1 mm 2 mps 741 mmHg 90%
    16:00 +8°C° 0.1 mm 2 mps 741 mmHg 90%
    17:00 +8°C° 0.1 mm 2 mps 742 mmHg 89%
    18:00 +8°C° 0.3 mm 2 mps 742 mmHg 91%
    19:00 +8°C° 0.3 mm 2 mps 742 mmHg 92%
    20:00 +8°C° 0.3 mm 2 mps 742 mmHg 93%
    21:00 +8°C° 0.1 mm 2 mps 742 mmHg 94%
    22:00 +8°C° 0.1 mm 3 mps 742 mmHg 94%
    23:00 +9°C° 0.1 mm 3 mps 742 mmHg 94%

    28 September, Friday

    Time Temperature Precipitation Wind Pressure Humidity
    00:00 +8°C° 0.1 mm 4 mps 741 mmHg 94%
    01:00 +8°C° 0.1 mm 4 mps 741 mmHg 94%
    02:00 +10°C° 0.1 mm 4 mps 740 mmHg 94%
    03:00 +10°C° 1.3 mm 5 mps 739 mmHg 93%
    04:00 +11°C° 1.3 mm 7 mps 739 mmHg 92%
    05:00 +11°C° 1.3 mm 8 mps 738 mmHg 90%
    06:00 +10°C° 1.4 mm 7 mps 738 mmHg 90%
    07:00 +9°C° 1.4 mm 6 mps 738 mmHg 90%
    08:00 +9°C° 1.4 mm 5 mps 738 mmHg 90%
    09:00 +8°C° 0.6 mm 4 mps 739 mmHg 90%
    10:00 +9°C° 0.6 mm 3 mps 740 mmHg 90%
    11:00 +8°C° 0.6 mm 2 mps 740 mmHg 89%
    12:00 +9°C° 0 mm 2 mps 741 mmHg 83%
    13:00 +10°C° 0 mm 2 mps 741 mmHg 77%
    14:00 +12°C° 0 mm 2 mps 742 mmHg 71%
    15:00 +12°C° 0 mm 2 mps 742 mmHg 74%
    16:00 +10°C° 0 mm 2 mps 742 mmHg 77%
    17:00 +11°C° 0 mm 1 mps 742 mmHg 79%
    18:00 +10°C° 0 mm 1 mps 743 mmHg 83%
    19:00 +9°C° 0 mm 1 mps 743 mmHg 86%
    20:00 +8°C° 0 mm 1 mps 743 mmHg 89%
    21:00 +7°C° 0.1 mm 2 mps 743 mmHg 91%
    22:00 +7°C° 0.1 mm 2 mps 744 mmHg 92%
    23:00 +7°C° 0.1 mm 2 mps 744 mmHg 94%

    29 September, Saturday

    Time Temperature Precipitation Wind Pressure Humidity
    00:00 +7°C° 0.1 mm 3 mps 744 mmHg 93%
    01:00 +7°C° 0.1 mm 3 mps 745 mmHg 92%
    02:00 +6°C° 0.1 mm 4 mps 745 mmHg 92%
    03:00 +5°C° 0 mm 4 mps 745 mmHg 91%
    04:00 +4°C° 0 mm 4 mps 745 mmHg 90%
    05:00 +4°C° 0 mm 4 mps 746 mmHg 89%
    06:00 +4°C° 0 mm 4 mps 746 mmHg 88%
    07:00 +4°C° 0 mm 4 mps 747 mmHg 87%
    08:00 +3°C° 0 mm 4 mps 748 mmHg 86%
    09:00 +4°C° 0 mm 4 mps 748 mmHg 80%
    10:00 +5°C° 0 mm 4 mps 749 mmHg 75%
    11:00 +6°C° 0 mm 4 mps 749 mmHg 69%
    12:00 +7°C° 0 mm 4 mps 750 mmHg 63%
    13:00 +8°C° 0 mm 4 mps 750 mmHg 58%
    14:00 +8°C° 0 mm 4 mps 750 mmHg 52%
    15:00 +8°C° 0 mm 3 mps 750 mmHg 56%
    16:00 +8°C° 0 mm 3 mps 751 mmHg 59%
    17:00 +7°C° 0 mm 2 mps 751 mmHg 63%
    18:00 +6°C° 0 mm 2 mps 751 mmHg 68%
    19:00 +5°C° 0 mm 2 mps 752 mmHg 73%
    20:00 +4°C° 0 mm 2 mps 752 mmHg 78%
    21:00 +4°C° 0 mm 2 mps 752 mmHg 81%
    22:00 +3°C° 0 mm 2 mps 753 mmHg 84%
    23:00 +3°C° 0 mm 2 mps 753 mmHg 87%
    Show more